Weather in Shumanay

Uzbekistan     42°38′07″N   58°55′27″E
temp.,
°C
wind,
m/s
gust,
m/s
humid.,
%
clouds,
%
prec.,
mm/h
press.,
hPa
HPBL,
m
14 june, mon
mon1423:00+32e1017130 0.0 1009547
02:00+29e917130 0.0 1009483
05:00+27e715120 0.0 1010386
08:00+29ese812130 0.0 1012658
11:00+33ese89105 0.0 10121815
14:00+35e77898 0.0 10122362
17:00+35ene76857 0.0 10112605
20:00+31ne691212 0.0 1011255
15 june, tue
tue1523:00+26ne511185 0.0 1012207
02:00+24ene510231 0.0 1012160
05:00+23e48221 0.0 1012109
08:00+28e46160 0.0 1013290
11:00+32e56100 0.0 10122142
14:00+35e56100 0.0 10112755
17:00+35ene66100 0.0 10102798
20:00+30ne913190 0.0 1010378
16 june, wed
wed1623:00+26ne612250 0.0 1010243
02:00+24ene510290 0.0 1010147
05:00+24ene45275 0.0 101061
08:00+29ene46230 0.0 1011246
11:00+34ene45150 0.0 10112655
14:00+37ne55120 0.0 10103470
17:00+37nne65110 0.0 10093674
20:00+32ne912180 0.0 1010520
17 june, thu
thu1723:00+27nne511270 0.0 1011215
02:00+25nne47350 0.0 1010105
05:00+24nne45390 0.0 101057
08:00+28nne34300 0.0 1010224
11:00+35ne44130 0.0 10102682
14:00+37ne44110 0.0 10083369
17:00+38nne5490 0.0 10073291
20:00+33ne711150 0.0 1008388
18 june, fri
fri1823:00+27ne59250 0.0 1009161
02:00+25ene34300 0.0 100853
05:00+25se44260 0.0 100733
08:00+30nw11215 0.0 1008161
11:00+36nw221334 0.0 10081130
14:00+39nw35114 0.0 10063073
17:00+40nnw5695 0.0 10054492
20:00+36nne10131876 0.0 1006773